This is the latest recevied weather packets stored in our database for station/object VR2R-13. If no packets are shown the sender has not sent any weather packets the latest 10 day(s).
| Time | Temp. | Humidity | Pressure | Rain* | Wind** | Luminosity | Snow |
|---|---|---|---|---|---|---|---|
| 1777522604 | 17.22° C | 87% | 915.7 hPa | 0 mm | - | - | - |
| 1777522602 | 17.22° C | 87% | 915.7 hPa | 0 mm | - | - | - |
| 1777522302 | 16.11° C | 87% | 915.7 hPa | 0 mm | - | - | - |
| 1777522243 | 15.56° C | 86% | 915.7 hPa | 0 mm | - | - | - |
| 1777522002 | 17.22° C | 82% | 915.7 hPa | 0 mm | - | - | - |
| 1777521702 | 18.33° C | 84% | 915.7 hPa | 0 mm | - | - | - |
| 1777521523 | 18.33° C | 84% | 915.8 hPa | 0 mm | - | - | - |
| 1777519003 | 18.33° C | 83% | 916 hPa | 0 mm | - | - | - |
| 1777519002 | 18.33° C | 83% | 916 hPa | 0 mm | - | - | - |
| 1777518643 | 18.33° C | 84% | 916 hPa | 0 mm | - | - | - |
| 1777518403 | 18.33° C | 84% | 916 hPa | 0 mm | - | - | - |
| 1777518283 | 18.33° C | 85% | 916 hPa | 0 mm | - | - | - |
| 1777518102 | 18.33° C | 85% | 915.9 hPa | 0 mm | - | - | - |
| 1777517923 | 18.33° C | 84% | 916 hPa | 0 mm | - | - | - |
| 1777517801 | 18.33° C | 83% | 916 hPa | 0 mm | - | - | - |
| 1777517563 | 18.89° C | 82% | 916 hPa | 0 mm | - | - | - |
| 1777517501 | 18.89° C | 82% | 916 hPa | 0 mm | - | - | - |
| 1777517203 | 18.89° C | 83% | 915.9 hPa | 0 mm | - | - | - |
| 1777517202 | 18.89° C | 83% | 915.9 hPa | 0 mm | - | - | - |
| 1777516901 | 18.89° C | 84% | 915.9 hPa | 0 mm | - | - | - |
| 1777516842 | 18.89° C | 82% | 915.9 hPa | 0 mm | - | - | - |
| 1777516482 | 17.78° C | 84% | 916 hPa | 0 mm | - | - | - |
| 1777516302 | 17.78° C | 85% | 916 hPa | 0 mm | - | - | - |
| 1777516122 | 17.22° C | 88% | 916 hPa | 0 mm | - | - | - |
| 1777516001 | 16.67° C | 86% | 916.1 hPa | 0 mm | - | - | - |
* Rain latest hour (hover to see other rain measurements)
** Current wind speed in m/s (hover to see current wind gust speed)